Regional Weather Roundup
Issued by NWS State College, PA

Home | Current Version | Previous Version | Text Only | Print | Product List | Glossary On
Versions: 1 2 3 4 5 6 7 8 9 10 11 12 13 14 15 16 17 18 19 20 21 22 23 24 25 26 27 28 29 30 31 32 33 34 35 36 37 38 39 40 41 42 43 44 45 46 47 48 49 50
000
ASUS41 KCTP 270010
RWRCTP

REGIONAL WEATHER ROUNDUP
NATIONAL WEATHER SERVICE STATE COLLEGE PA
800 PM EDT THU MAY 26 2016

Note: "fair" indicates few or no clouds below 12,000 feet with no
significant weather and/or obstructions to visibility.

* = STATION THAT DOES NOT REPORT PRECIPITATION /E.G. RAIN...SNOW...ETC/
    THUNDER OR FOG.

PAZ002>004-007>009-013>016-020>023-029>032-270100-
WESTERN PENNSYLVANIA

CITY           SKY/WX    TMP DP  RH WIND       PRES   REMARKS
ERIE           CLEAR     76  63  64 NW3       29.96R
MEADVILLE      CLEAR     74  61  63 SW5       30.01R
FRANKLIN*      CLEAR     73  61  64 SW5       30.04R
NEW CASTLE     FAIR      76  64  66 CALM      30.01R
BEAVER COUNTY  CLEAR     75  63  64 S6        30.02R
BUTLER*        PTCLDY    75  61  60 SW5       30.04S
PITTSBURGH INT PTCLDY    79  60  52 SW8       30.01S
PITTSBURGH     CLEAR     77  61  57 S8        30.02S
INDIANA*       NOT AVBL
LATROBE        PTCLDY    77  66  69 SW6       30.03S
WASHINGTON CO* CLEAR     75  63  64 SW6       30.03S
$$

PAZ004>006-010>012-017>019-024>028-033>037-041-042-045-046-049>053-270100-
CENTRAL PENNSYLVANIA

CITY           SKY/WX    TMP DP  RH WIND       PRES   REMARKS
BRADFORD       PTCLDY    75  59  57 VRB3      30.04S
DUBOIS         CLEAR     74  60  61 SW5       30.03S
CLEARFIELD     CLEAR     76  60  57 S6        30.03F
JOHNSTOWN      CLEAR     72  56  57 S9        30.07F
ALTOONA        MOCLDY    70  65  84 S7        30.06S
STATE COLLEGE  PTCLDY    72  64  78 CALM      30.03F
WILLIAMSPORT   CLOUDY    79  62  56 CALM      29.98F
SELINSGROVE    PTCLDY    81  64  56 CALM      30.00S
FT INDIANTOWN  CLOUDY    76  67  72 CALM      30.01S
CAPITAL CITY   MOCLDY    84  58  40 S6        30.00S
HARRISBURG     MOCLDY    78  64  61 SW5       30.00S
YORK           PTCLDY    76  66  71 CALM      30.02R
$$

PAZ038>040-043-044-047-048-054-055-060>062-067>071-270100-
EASTERN PENNSYLVANIA

CITY           SKY/WX    TMP DP  RH WIND       PRES   REMARKS
SCRANTON       CLOUDY    81  58  45 CALM      30.03R
MOUNT POCONO   CLOUDY    70  53  54 S5        30.09S
ALLENTOWN      CLOUDY    83  57  41 S5        30.02R
QUAKERTOWN*    PTCLDY    81  63  54 CALM      30.04S
READING        MOCLDY    82  59  45 S6        30.01S
LANCASTER      CLOUDY    80  64  58 S7        30.02R
COATESVILLE    CLEAR     79  54  41 VRB5      30.06S
POTTSTOWN      PTCLDY    82  58  43 S7        30.04R
BLUE BELL      CLEAR     79  59  50 S5        30.03R
DOYLESTOWN     CLEAR     81  55  40 S5        30.02S
WILLOW GROVE   NOT AVBL
NORTH PHILA    CLEAR     85  58  39 VRB6      30.04R
PHILADELPHIA   PTCLDY    83  52  34 S9        30.03R
$$




USA.gov is the U.S. government's official web portal to all federal, state and local government web resources and services.